Regional Weather Roundup
Issued by NWS Midland/Odessa, TX

Skip options and go directly to product.
Home | Oldest Version | Previous Version | Current Version | All | Graphics & Text | Save Text | Print | Product List | Glossary On

Skip product version selection by date and time.   
268
ASUS44 KMAF 201110
RWRMAF
MIDLAND AREA WEATHER ROUNDUP
NATIONAL WEATHER SERVICE MIDLAND TX
600 AM CDT MON OCT 20 2014

...IN SOUTHWEST TEXAS AND SOUTHEAST NEW MEXICO...

CITY           SKY/WX    TMP DP  RH WIND       PRES   REMARKS
ALPINE         CLOUDY    57  53  85 S3        30.15S
ANDREWS        FAIR      54  53  95 CALM      30.09S
ARTESIA        NOT AVBL
BIG SPRING     PTCLDY    59  55  87 NW3       30.09R
CARLSBAD       CLOUDY    63  58  83 NE3       30.06S
DRYDEN           N/A     65  63  93 NE3       30.01R
FORT STOCKTON  CLOUDY    64  57  78 SE9       30.05S
GUAD PASS      FOG       56  56 100 E8        30.17R VSB 1/2
HOBBS          NOT AVBL
MARFA          CLOUDY    57  54  88 W6        30.12F
MIDLAND AIRPK  CLOUDY    60  56  88 CALM      30.08R
MIDLAND INTL   CLOUDY    58  55  90 CALM      30.07R
ODESSA         CLOUDY    58  55  90 E5        30.08R
PECOS          CLOUDY    60  56  85 CALM      30.05R
PRESIDIO       LGT RAIN  64  59  83 MISG      30.03R
SEMINOLE       MOCLDY    52  51  97 CALM      30.11R
SNYDER         CLEAR     56  55  95 SW3       30.08S
WINK           CLOUDY    62  58  86 E7        30.04S
$$
...OTHER STATIONS IN TEXAS...

CITY           SKY/WX    TMP DP  RH WIND       PRES   REMARKS
ABILENE        MOCLDY    62  58  86 SE5       30.06R
AMARILLO       CLEAR     56  55  97 SW8       30.09R
AUSTIN         PTCLDY    57  57 100 CALM      30.04R
BROWNSVILLE    MOCLDY    73  69  87 CALM      29.90S
CORPUS CHRISTI MOCLDY    73  69  87 NE12      29.94R
DALLAS FTW     MOCLDY    60  54  80 SE3       30.05S
DEL RIO        PTCLDY    67  62  84 E7        29.99R
EL PASO        MOCLDY    58  54  86 NE7       30.07S
HOUSTON INT    PTCLDY    60  57  89 NE5       30.01S
LUBBOCK        PTCLDY    52  50  93 NW5       30.10R FOG
SAN ANGELO     PTCLDY    58  55  90 CALM      30.05R
SAN ANTONIO    MOCLDY    67  63  87 E3        30.02S
WACO           CLEAR     57  55  93 N5        30.06R
WICHITA FALLS  NOT AVBL
$$
...OTHER LOCATIONS IN NEW MEXICO...

CITY           SKY/WX    TMP DP  RH WIND       PRES   REMARKS
ALAMAGORDO     NOT AVBL
ALBUQUERQUE    PTCLDY    50  43  77 CALM      30.18S
CANNON AFB     CLEAR     54  54 100 W6        30.12S
CLOVIS         CLEAR     52  48  87 W7        30.15R
HOLLOMAN AFB   MOCLDY    56  56 100 N9        30.08F
ROSWELL        MOCLDY    55  51  86 N5        30.10R
RUIDOSO        CLOUDY    48  46  93 W6        30.23S
SANTA FE       MOCLDY    46  40  79 CALM      30.22S
TRUTH OR CONSE CLOUDY    54  51  90 NW6       30.13F
TUCUMCARI      CLEAR     52  47  83 W6        30.10S
$$

USA.gov is the U.S. government's official web portal to all federal, state and local government web resources and services.